Weather in Panayevsk

Russia / Yamalo-Nenets Autonomous Okrug     66°44′41″N   70°05′10″E
temp.,
°C
wind,
m/s
gust,
m/s
humid.,
%
clouds,
%
prec.,
mm/h
press.,
hPa
HPBL,
m
27 february, sat
sat2723:00−25s2210025 0.0 102220
02:00−26ssw2210041 0.0 102219
05:00−26ssw229936 0.0 102219
08:00−27ssw221000 0.0 102219
11:00−25ssw339620 0.0 102240
14:00−23ssw239562 0.0 102338
17:00−25s339649 0.0 102320
20:00−25s349610 0.0 102227
28 february, sun
sun2823:00−25s459714 0.0 102237
02:00−26s459718 0.0 102146
05:00−25s459731 0.0 102262
08:00−26s569871 0.0 102175
11:00−25ssw599646 0.0 1021193
14:00−23s589431 0.0 1021217
17:00−24s579439 0.0 102198
20:00−25ssw579559 0.0 102090
1 march, mon
mon123:00−26ssw589657 0.0 1020102
02:00−26ssw589697 0.0 1019115
05:00−27ssw589796 0.0 1019126
08:00−27ssw6109697 0.0 1018191
11:00−25ssw7129297 0.0 1017300
14:00−23ssw7119086 0.0 1015329
17:00−23ssw7138957 0.0 1014266
20:00−23ssw612935 0.0 1012210
2 march, tue
tue223:00−23ssw7139234 0.0 1010254
02:00−22s7139196 0.0 1008306
05:00−22s8148998 0.0 1007330
08:00−21s91687100 0.0 1006348
11:00−19ssw91585100 0.0 1006453
14:00−17s101684100 0.0 1005547
17:00−15s91584100 0.0 1005518
20:00−16s91587100 0.0 1005439
3 march, wed
wed323:00−18s81490100 0.0 1005401
02:00−19s81391100 0.0 1005377
05:00−19s81492100 0.0 1005366
08:00−19s81392100 0.0 1004406
11:00−17s91391100 0.0 1004500
14:00−15s91391100 0.1 1004599
17:00−14s81393100 0.4 1004573
20:00−15s81394100 0.4 1004503